Location: Ahausen
(50.4985°N, 8.2722°E)
Time: 17:59:31
(UTC+00:00)

Cosmos 1627 Rocket - Visible Passes

Search period start: 26 January 2021 00:00
Search period end: 05 February 2021 00:00
Orbit: 951 x 1003 km, 82.9° (Epoch: 26 January)

Date Brightness Start Highest point End Pass type
(mag) Time Alt. Az. Time Alt. Az. Time Alt. Az.
26 Jan 6.0 03:55:10 10° N 04:00:58 35° ENE 04:06:44 10° SE visible
26 Jan 4.7 05:40:30 10° NNW 05:46:37 50° W 05:52:44 10° SSW visible
26 Jan 4.6 17:30:24 10° SSE 17:36:23 52° E 17:42:28 10° NNE visible
26 Jan 6.1 19:16:35 10° SW 19:22:07 33° WNW 19:27:45 10° N visible
27 Jan 7.3 02:37:34 10° NNE 02:40:10 13° NE 02:42:46 10° ENE visible
27 Jan 5.2 04:20:53 10° N 04:27:11 56° ENE 04:33:27 10° SSE visible
27 Jan 5.3 06:06:51 10° NNW 06:12:17 30° W 06:17:43 10° SW visible
27 Jan 4.4 17:55:59 10° S 18:02:13 86° E 18:08:35 10° N visible
27 Jan 6.8 19:43:59 10° WSW 19:48:33 21° WNW 19:53:10 10° NNW visible
28 Jan 6.8 03:02:15 10° NNE 03:06:50 20° ENE 03:11:24 10° ESE visible
28 Jan 4.5 04:46:47 10° N 04:53:14 90° E 04:59:38 10° S visible
28 Jan 5.3 16:38:04 10° SE 16:43:12 28° E 16:48:27 10° NNE visible
28 Jan 5.1 18:22:06 10° SSW 18:28:13 59° WNW 18:34:30 10° N visible
28 Jan 7.3 20:12:27 10° WNW 20:15:12 13° NW 20:17:58 10° NNW visible
29 Jan 6.2 03:27:39 10° N 03:33:18 31° ENE 03:38:55 10° SE visible
29 Jan 4.6 05:12:52 10° NNW 05:19:05 56° W 05:25:18 10° SSW visible
29 Jan 4.8 17:02:56 10° SSE 17:08:50 47° E 17:14:51 10° NNE visible
29 Jan 6.0 18:48:45 10° SW 18:54:26 36° WNW 19:00:14 10° N visible
30 Jan 7.4 02:10:31 10° NNE 02:12:25 11° NE 02:14:17 10° ENE visible
30 Jan 5.3 03:53:20 10° N 03:59:34 50° ENE 04:05:45 10° SSE visible
30 Jan 5.1 05:39:08 10° NNW 05:44:47 34° W 05:50:24 10° SSW visible
30 Jan 4.5 17:28:24 10° S 17:34:38 78° E 17:40:59 10° NNE visible
30 Jan 6.7 19:16:00 10° WSW 19:20:50 23° WNW 19:25:45 10° N visible
31 Jan 6.9 02:34:50 10° NNE 02:39:07 18° ENE 02:43:23 10° E visible
31 Jan 4.6 04:19:12 10° N 04:25:38 82° E 04:32:02 10° SSE visible
31 Jan 5.7 06:05:48 10° NW 06:10:18 21° W 06:14:48 10° SW visible
31 Jan 4.9 17:54:24 10° SSW 18:00:37 65° WNW 18:06:57 10° N visible
31 Jan 7.2 19:44:09 10° W 19:47:26 14° NW 19:50:45 10° NNW visible
01 Feb 6.3 03:00:10 10° N 03:05:38 29° ENE 03:11:04 10° ESE visible
01 Feb 4.5 04:45:13 10° NNW 04:51:32 62° W 04:57:48 10° S visible
01 Feb 5.8 18:20:56 10° SW 18:26:46 40° WNW 18:32:43 10° N visible
02 Feb 7.4 01:44:11 10° NE 01:44:38 10° NE 01:45:05 10° NE visible
02 Feb 5.5 03:25:47 10° N 03:31:56 46° ENE 03:38:02 10° SE visible
02 Feb 5.0 05:11:28 10° NNW 05:17:16 38° W 05:23:02 10° SSW visible
02 Feb 4.5 17:00:51 10° S 17:07:03 70° E 17:13:23 10° NNE visible
02 Feb 6.6 18:48:02 10° WSW 18:53:07 25° WNW 18:58:17 10° N visible
03 Feb 7.0 02:07:28 10° NNE 02:11:24 17° ENE 02:15:18 10° E visible
03 Feb 4.7 03:51:37 10° N 03:58:02 74° ENE 04:04:25 10° SSE visible
03 Feb 5.5 05:38:01 10° NNW 05:42:49 23° W 05:47:36 10° SW visible
03 Feb 4.8 17:26:44 10° SSW 17:32:59 72° WNW 17:39:23 10° N visible
03 Feb 7.2 19:15:57 10° W 19:19:41 16° NW 19:23:27 10° NNW visible
04 Feb 6.4 02:32:40 10° N 02:37:56 26° ENE 02:43:11 10° ESE visible
04 Feb 4.4 04:17:36 10° NNW 04:23:59 69° W 04:30:18 10° S visible
04 Feb 6.0 06:05:21 10° NW 06:08:11 13° WNW 06:11:02 10° W visible
04 Feb 5.7 17:53:09 10° SW 17:59:06 44° WNW 18:05:12 10° N visible
